Time,TemperatureF,DewpointF,PressureIn,WindDirection,WindDirectionDegrees,WindSpeedMPH,WindSpeedGustMPH,Humidity,HourlyPrecipIn,Conditions,Clouds,dailyrainin,SoftwareType,DateUTC
2013-02-10 00:03:00,26.2,22.5,30.09,SW,225,0.0,1.7,86,0.00,,,0.00,WUHU216HW,2013-02-10 07:03:00,
2013-02-10 00:08:00,26.2,22.5,30.09,SW,225,0.0,1.7,86,0.00,,,0.00,WUHU216HW,2013-02-10 07:08:00,
2013-02-10 00:13:00,26.2,22.5,30.10,SW,225,0.0,0.0,86,0.00,,,0.00,WUHU216HW,2013-02-10 07:13:00,
2013-02-10 00:19:00,26.2,22.5,30.10,SW,225,0.0,0.0,86,0.00,,,0.00,WUHU216HW,2013-02-10 07:19:00,
2013-02-10 00:24:00,26.2,22.5,30.10,SW,225,0.0,0.0,86,0.00,,,0.00,WUHU216HW,2013-02-10 07:24:00,
2013-02-10 00:29:00,26.2,22.5,30.11,SW,225,0.0,0.0,86,0.00,,,0.00,WUHU216HW,2013-02-10 07:29:00,
2013-02-10 00:35:00,26.2,22.5,30.11,SW,225,0.0,0.0,86,0.00,,,0.00,WUHU216HW,2013-02-10 07:35:00,
2013-02-10 00:40:00,26.2,22.5,30.11,SW,225,0.0,0.0,86,0.00,,,0.00,WUHU216HW,2013-02-10 07:40:00,
2013-02-10 00:45:00,26.2,22.5,30.11,SW,225,0.0,0.0,86,0.00,,,0.00,WUHU216HW,2013-02-10 07:45:00,
2013-02-10 00:50:00,26.2,22.5,30.11,SW,225,1.3,1.3,86,0.00,,,0.00,WUHU216HW,2013-02-10 07:50:00,
2013-02-10 00:55:00,26.0,22.4,30.11,SW,225,0.0,1.3,86,0.00,,,0.00,WUHU216HW,2013-02-10 07:55:00,
2013-02-10 01:00:00,26.2,22.5,30.11,SW,225,0.0,1.1,86,0.00,,,0.00,WUHU216HW,2013-02-10 08:00:00,
2013-02-10 01:05:00,26.2,22.5,30.11,SW,225,0.0,2.4,86,0.00,,,0.00,WUHU216HW,2013-02-10 08:05:00,
2013-02-10 01:10:00,26.2,22.5,30.11,SW,225,0.0,2.4,86,0.00,,,0.00,WUHU216HW,2013-02-10 08:10:00,
2013-02-10 01:15:00,26.2,22.5,30.12,SW,225,0.0,0.0,86,0.00,,,0.00,WUHU216HW,2013-02-10 08:15:00,
2013-02-10 01:20:00,26.2,22.5,30.12,SW,225,0.0,0.0,86,0.00,,,0.00,WUHU216HW,2013-02-10 08:20:00,
2013-02-10 01:25:00,26.2,22.5,30.12,SW,225,0.0,0.0,86,0.00,,,0.00,WUHU216HW,2013-02-10 08:25:00,
2013-02-10 01:30:00,26.2,22.5,30.12,SW,225,0.0,0.0,86,0.00,,,0.00,WUHU216HW,2013-02-10 08:30:00,
2013-02-10 01:35:00,26.2,22.5,30.12,SW,225,0.0,0.0,86,0.00,,,0.00,WUHU216HW,2013-02-10 08:35:00,
2013-02-10 01:40:00,26.2,22.5,30.12,SW,225,0.0,0.0,86,0.00,,,0.00,WUHU216HW,2013-02-10 08:40:00,
2013-02-10 01:45:00,26.2,22.5,30.12,SW,225,0.0,0.0,86,0.00,,,0.00,WUHU216HW,2013-02-10 08:45:00,
2013-02-10 01:50:00,26.2,22.5,30.12,SW,225,2.2,2.9,86,0.00,,,0.00,WUHU216HW,2013-02-10 08:50:00,
2013-02-10 01:55:00,26.2,22.5,30.12,SW,225,3.8,3.8,86,0.00,,,0.00,WUHU216HW,2013-02-10 08:55:00,
2013-02-10 02:00:00,26.2,22.5,30.12,SSW,203,3.3,3.8,86,0.00,,,0.00,WUHU216HW,2013-02-10 09:00:00,
2013-02-10 02:05:00,26.2,22.5,30.12,South,180,0.0,3.3,86,0.00,,,0.00,WUHU216HW,2013-02-10 09:05:00,
2013-02-10 02:10:00,26.0,22.4,30.12,SSW,203,2.0,2.9,86,0.00,,,0.00,WUHU216HW,2013-02-10 09:10:00,
2013-02-10 02:15:00,26.0,22.4,30.12,SSW,203,0.0,2.9,86,0.00,,,0.00,WUHU216HW,2013-02-10 09:15:00,
2013-02-10 02:21:00,26.0,22.4,30.12,SSW,203,0.0,2.4,86,0.00,,,0.00,WUHU216HW,2013-02-10 09:21:00,
2013-02-10 02:25:00,25.8,22.4,30.12,SSW,203,0.4,2.2,86,0.00,,,0.00,WUHU216HW,2013-02-10 09:25:00,
2013-02-10 02:31:00,25.8,22.2,30.12,SSW,203,0.0,2.2,86,0.00,,,0.00,WUHU216HW,2013-02-10 09:31:00,
2013-02-10 02:36:00,25.8,22.2,30.12,SSW,203,0.0,0.8,86,0.00,,,0.00,WUHU216HW,2013-02-10 09:36:00,
2013-02-10 02:41:00,25.8,22.2,30.12,SSW,203,0.0,2.6,86,0.00,,,0.00,WUHU216HW,2013-02-10 09:41:00,
2013-02-10 02:46:00,25.8,22.2,30.13,SSW,203,0.0,2.6,86,0.00,,,0.00,WUHU216HW,2013-02-10 09:46:00,
2013-02-10 02:51:00,25.8,22.2,30.13,SSW,203,0.0,2.6,86,0.00,,,0.00,WUHU216HW,2013-02-10 09:51:00,
2013-02-10 02:56:00,25.7,22.0,30.13,SSW,203,0.0,2.6,86,0.00,,,0.00,WUHU216HW,2013-02-10 09:56:00,
2013-02-10 03:01:00,25.7,22.0,30.13,SSW,203,0.0,1.3,86,0.00,,,0.00,WUHU216HW,2013-02-10 10:01:00,
2013-02-10 03:06:00,25.7,22.0,30.13,SW,225,0.0,1.5,86,0.00,,,0.00,WUHU216HW,2013-02-10 10:06:00,
2013-02-10 03:11:00,25.7,22.0,30.12,SW,225,0.0,1.5,86,0.00,,,0.00,WUHU216HW,2013-02-10 10:11:00,
2013-02-10 03:16:00,25.7,22.0,30.12,SSW,203,1.7,3.1,86,0.00,,,0.00,WUHU216HW,2013-02-10 10:16:00,
2013-02-10 03:21:00,25.7,22.0,30.13,SSW,203,2.2,3.8,86,0.00,,,0.00,WUHU216HW,2013-02-10 10:21:00,
2013-02-10 03:26:00,25.7,22.3,30.13,SW,225,0.0,3.8,87,0.00,,,0.00,WUHU216HW,2013-02-10 10:26:00,
2013-02-10 03:31:00,25.7,22.3,30.13,SW,225,0.0,2.6,87,0.00,,,0.00,WUHU216HW,2013-02-10 10:31:00,
2013-02-10 03:37:00,25.8,22.5,30.13,SW,225,0.0,0.0,87,0.00,,,0.00,WUHU216HW,2013-02-10 10:37:00,
2013-02-10 03:42:00,25.8,22.5,30.12,SW,225,0.0,0.0,87,0.00,,,0.00,WUHU216HW,2013-02-10 10:42:00,
2013-02-10 03:47:00,26.0,22.6,30.12,South,180,0.0,2.9,87,0.00,,,0.00,WUHU216HW,2013-02-10 10:47:00,
2013-02-10 03:52:00,26.2,22.6,30.12,SSW,203,1.5,3.3,87,0.00,,,0.00,WUHU216HW,2013-02-10 10:52:00,
2013-02-10 03:57:00,26.2,22.8,30.12,SSW,203,0.0,3.3,87,0.00,,,0.00,WUHU216HW,2013-02-10 10:57:00,
2013-02-10 04:02:00,26.2,22.8,30.13,SSW,203,0.0,0.0,87,0.00,,,0.00,WUHU216HW,2013-02-10 11:02:00,
2013-02-10 04:07:00,26.2,22.8,30.12,SSW,203,0.0,0.0,87,0.00,,,0.00,WUHU216HW,2013-02-10 11:07:00,
2013-02-10 04:12:00,26.2,22.8,30.13,SSW,203,0.0,2.6,87,0.00,,,0.00,WUHU216HW,2013-02-10 11:12:00,
2013-02-10 04:17:00,26.2,22.8,30.13,SSW,203,0.0,2.6,87,0.00,,,0.00,WUHU216HW,2013-02-10 11:17:00,
2013-02-10 04:22:00,26.2,22.8,30.12,SSW,203,0.0,1.3,87,0.00,,,0.00,WUHU216HW,2013-02-10 11:22:00,
2013-02-10 04:27:00,26.2,22.8,30.12,SSW,203,0.0,0.0,87,0.00,,,0.00,WUHU216HW,2013-02-10 11:27:00,
2013-02-10 04:33:00,26.2,22.8,30.13,SSW,203,0.0,0.0,87,0.00,,,0.00,WUHU216HW,2013-02-10 11:33:00,
2013-02-10 04:38:00,26.2,22.8,30.13,SSW,203,0.0,0.0,87,0.00,,,0.00,WUHU216HW,2013-02-10 11:38:00,
2013-02-10 04:43:00,26.0,22.6,30.13,SSW,203,0.0,0.0,87,0.00,,,0.00,WUHU216HW,2013-02-10 11:43:00,
2013-02-10 04:48:00,25.8,22.5,30.13,SSW,203,0.0,0.0,87,0.00,,,0.00,WUHU216HW,2013-02-10 11:48:00,
2013-02-10 04:53:00,25.7,22.0,30.13,SSW,203,0.0,0.0,86,0.00,,,0.00,WUHU216HW,2013-02-10 11:53:00,
2013-02-10 04:58:00,25.5,21.8,30.13,SSW,203,0.0,0.0,86,0.00,,,0.00,WUHU216HW,2013-02-10 11:58:00,
2013-02-10 05:04:00,25.1,21.5,30.13,SSW,203,0.0,0.0,86,0.00,,,0.00,WUHU216HW,2013-02-10 12:04:00,
2013-02-10 05:09:00,24.9,21.3,30.13,SW,225,0.0,0.0,86,0.00,,,0.00,WUHU216HW,2013-02-10 12:09:00,
2013-02-10 05:14:00,24.6,21.0,30.13,SW,225,0.0,0.0,86,0.00,,,0.00,WUHU216HW,2013-02-10 12:14:00,
2013-02-10 05:19:00,24.6,21.0,30.14,SW,225,0.0,0.0,86,0.00,,,0.00,WUHU216HW,2013-02-10 12:19:00,
2013-02-10 05:24:00,24.4,20.8,30.14,SW,225,0.0,0.0,86,0.00,,,0.00,WUHU216HW,2013-02-10 12:24:00,
2013-02-10 05:29:00,24.4,20.8,30.14,SW,225,0.0,0.0,86,0.00,,,0.00,WUHU216HW,2013-02-10 12:29:00,
2013-02-10 05:34:00,24.4,20.8,30.14,SW,225,0.0,0.0,86,0.00,,,0.00,WUHU216HW,2013-02-10 12:34:00,
2013-02-10 05:39:00,24.4,21.1,30.14,SW,225,0.0,0.0,87,0.00,,,0.00,WUHU216HW,2013-02-10 12:39:00,
2013-02-10 05:44:00,24.6,21.2,30.15,SW,225,0.0,0.0,87,0.00,,,0.00,WUHU216HW,2013-02-10 12:44:00,
2013-02-10 05:49:00,24.6,21.2,30.15,SW,225,0.0,0.0,87,0.00,,,0.00,WUHU216HW,2013-02-10 12:49:00,
2013-02-10 05:54:00,24.8,21.4,30.15,SW,225,0.0,0.0,87,0.00,,,0.00,WUHU216HW,2013-02-10 12:54:00,
2013-02-10 05:59:00,24.9,21.6,30.15,SW,225,0.0,2.2,87,0.00,,,0.00,WUHU216HW,2013-02-10 12:59:00,
2013-02-10 06:05:00,24.9,21.6,30.15,South,180,2.2,3.3,87,0.00,,,0.00,WUHU216HW,2013-02-10 13:05:00,
2013-02-10 06:10:00,25.1,21.8,30.15,South,180,0.0,3.3,87,0.00,,,0.00,WUHU216HW,2013-02-10 13:10:00,
2013-02-10 06:15:00,25.3,21.9,30.15,South,180,0.0,2.0,87,0.00,,,0.00,WUHU216HW,2013-02-10 13:15:00,
2013-02-10 06:20:00,25.3,21.9,30.15,South,180,0.0,0.0,87,0.00,,,0.00,WUHU216HW,2013-02-10 13:20:00,
2013-02-10 06:25:00,25.5,22.1,30.15,South,180,0.0,0.0,87,0.00,,,0.00,WUHU216HW,2013-02-10 13:25:00,
2013-02-10 06:30:00,25.5,22.1,30.15,South,180,0.0,0.0,87,0.00,,,0.00,WUHU216HW,2013-02-10 13:30:00,
2013-02-10 06:35:00,25.5,22.1,30.15,SSW,203,1.5,3.3,87,0.00,,,0.00,WUHU216HW,2013-02-10 13:35:00,
2013-02-10 06:40:00,25.5,22.1,30.15,SSW,203,0.0,3.3,87,0.00,,,0.00,WUHU216HW,2013-02-10 13:40:00,
2013-02-10 06:45:00,25.5,22.1,30.15,SW,225,0.0,3.3,87,0.00,,,0.00,WUHU216HW,2013-02-10 13:45:00,
2013-02-10 06:50:00,25.5,22.1,30.15,SSW,203,0.0,2.6,87,0.00,,,0.00,WUHU216HW,2013-02-10 13:50:00,
2013-02-10 06:55:00,25.7,22.3,30.15,SSW,203,0.0,2.6,87,0.00,,,0.00,WUHU216HW,2013-02-10 13:55:00,
2013-02-10 07:00:00,25.7,22.3,30.15,SW,225,0.0,3.5,87,0.00,,,0.00,WUHU216HW,2013-02-10 14:00:00,
2013-02-10 07:05:00,25.7,22.3,30.15,SW,225,2.2,3.5,87,0.00,,,0.00,WUHU216HW,2013-02-10 14:05:00,
2013-02-10 07:10:00,25.8,22.5,30.15,SSW,203,3.8,3.8,87,0.00,,,0.00,WUHU216HW,2013-02-10 14:10:00,
2013-02-10 07:15:00,25.8,22.5,30.15,SSW,203,3.1,4.2,87,0.00,,,0.00,WUHU216HW,2013-02-10 14:15:00,
2013-02-10 07:20:00,25.8,22.5,30.15,SW,225,0.0,3.1,87,0.00,,,0.00,WUHU216HW,2013-02-10 14:20:00,
2013-02-10 07:25:00,25.8,22.5,30.15,West,270,0.0,1.5,87,0.00,,,0.00,WUHU216HW,2013-02-10 14:25:00,
2013-02-10 07:30:00,25.8,22.5,30.15,SW,225,0.0,0.0,87,0.00,,,0.00,WUHU216HW,2013-02-10 14:30:00,
2013-02-10 07:35:00,25.8,22.5,30.15,SW,225,0.0,0.0,87,0.00,,,0.00,WUHU216HW,2013-02-10 14:35:00,
2013-02-10 07:40:00,25.7,22.3,30.15,SW,225,0.0,0.0,87,0.00,,,0.00,WUHU216HW,2013-02-10 14:40:00,
2013-02-10 07:45:00,25.7,22.3,30.16,SW,225,0.0,0.0,87,0.00,,,0.00,WUHU216HW,2013-02-10 14:45:00,
2013-02-10 07:50:00,25.7,22.3,30.16,SW,225,0.0,2.4,87,0.00,,,0.00,WUHU216HW,2013-02-10 14:50:00,
2013-02-10 07:55:00,25.7,22.3,30.16,SW,225,0.0,2.4,87,0.00,,,0.00,WUHU216HW,2013-02-10 14:55:00,
2013-02-10 08:01:00,25.7,22.3,30.16,SW,225,0.0,0.0,87,0.00,,,0.00,WUHU216HW,2013-02-10 15:01:00,
2013-02-10 08:06:00,25.7,22.3,30.16,SW,225,0.0,0.0,87,0.00,,,0.00,WUHU216HW,2013-02-10 15:06:00,
2013-02-10 08:11:00,25.7,22.3,30.16,SW,225,0.0,0.0,87,0.00,,,0.00,WUHU216HW,2013-02-10 15:11:00,
2013-02-10 08:16:00,25.5,22.3,30.16,SW,225,0.0,0.0,87,0.00,,,0.00,WUHU216HW,2013-02-10 15:16:00,
2013-02-10 08:21:00,25.7,22.3,30.16,SSW,203,0.0,2.4,87,0.00,,,0.00,WUHU216HW,2013-02-10 15:21:00,
2013-02-10 08:26:00,25.7,22.3,30.16,SSW,203,0.0,2.4,87,0.00,,,0.00,WUHU216HW,2013-02-10 15:26:00,
2013-02-10 08:31:00,25.7,22.3,30.16,SSW,203,0.0,0.0,87,0.00,,,0.00,WUHU216HW,2013-02-10 15:31:00,
2013-02-10 08:36:00,25.8,22.5,30.16,SSW,203,0.0,0.0,87,0.00,,,0.00,WUHU216HW,2013-02-10 15:36:00,
2013-02-10 08:41:00,25.8,22.5,30.16,SW,225,0.0,0.0,87,0.00,,,0.00,WUHU216HW,2013-02-10 15:41:00,
2013-02-10 08:46:00,25.8,22.5,30.16,SW,225,0.0,2.6,87,0.00,,,0.00,WUHU216HW,2013-02-10 15:46:00,
2013-02-10 08:51:00,25.8,22.5,30.17,SW,225,0.0,2.6,87,0.00,,,0.00,WUHU216HW,2013-02-10 15:51:00,
2013-02-10 08:56:00,25.8,22.5,30.16,WSW,248,0.0,0.0,87,0.00,,,0.00,WUHU216HW,2013-02-10 15:56:00,
2013-02-10 09:01:00,26.0,22.6,30.16,WSW,248,0.0,0.0,87,0.00,,,0.00,WUHU216HW,2013-02-10 16:01:00,
2013-02-10 09:06:00,26.0,22.6,30.16,WSW,248,0.0,0.0,87,0.00,,,0.00,WUHU216HW,2013-02-10 16:06:00,
2013-02-10 09:11:00,26.0,22.6,30.16,WSW,248,0.0,0.0,87,0.00,,,0.00,WUHU216HW,2013-02-10 16:11:00,
2013-02-10 09:16:00,26.0,22.6,30.16,WSW,248,0.0,0.0,87,0.00,,,0.00,WUHU216HW,2013-02-10 16:16:00,
2013-02-10 09:21:00,26.0,22.6,30.27,WSW,248,0.0,0.0,87,0.00,,,0.00,WUHU216HW,2013-02-10 16:21:00,
2013-02-10 09:26:00,26.2,22.8,30.27,WNW,293,0.0,0.0,87,0.00,,,0.00,WUHU216HW,2013-02-10 16:26:00,
2013-02-10 09:31:00,26.2,22.8,30.27,WNW,293,0.0,0.0,87,0.00,,,0.00,WUHU216HW,2013-02-10 16:31:00,
2013-02-10 09:37:00,26.2,22.8,30.27,WNW,293,0.0,0.0,87,0.00,,,0.00,WUHU216HW,2013-02-10 16:37:00,
2013-02-10 09:42:00,26.4,23.0,30.27,WNW,293,0.0,0.0,87,0.00,,,0.00,WUHU216HW,2013-02-10 16:42:00,
2013-02-10 09:47:00,26.4,23.0,30.27,West,270,0.0,0.0,87,0.00,,,0.00,WUHU216HW,2013-02-10 16:47:00,
2013-02-10 09:52:00,26.6,23.2,30.27,West,270,0.0,0.0,87,0.00,,,0.00,WUHU216HW,2013-02-10 16:52:00,
2013-02-10 09:57:00,26.6,23.2,30.27,WNW,293,0.0,5.1,87,0.00,,,0.00,WUHU216HW,2013-02-10 16:57:00,
2013-02-10 10:02:00,26.6,23.2,30.27,NW,315,4.0,14.3,87,0.00,,,0.00,WUHU216HW,2013-02-10 17:02:00,
2013-02-10 10:07:00,26.4,22.7,30.28,NW,315,2.2,14.3,86,0.00,,,0.00,WUHU216HW,2013-02-10 17:07:00,
2013-02-10 10:12:00,26.4,22.7,30.27,NW,315,0.0,2.4,86,0.00,,,0.00,WUHU216HW,2013-02-10 17:12:00,
2013-02-10 10:17:00,26.4,22.7,30.28,SSW,203,0.0,2.4,86,0.00,,,0.00,WUHU216HW,2013-02-10 17:17:00,
2013-02-10 10:22:00,26.6,22.9,30.28,SSW,203,0.0,3.3,86,0.00,,,0.00,WUHU216HW,2013-02-10 17:22:00,
2013-02-10 10:27:00,26.7,23.1,30.28,SW,225,0.0,3.3,86,0.00,,,0.00,WUHU216HW,2013-02-10 17:27:00,
2013-02-10 10:32:00,27.3,23.4,30.28,SW,225,0.0,1.1,86,0.00,,,0.00,WUHU216HW,2013-02-10 17:32:00,
2013-02-10 10:37:00,27.5,23.8,30.28,SSW,203,0.0,0.0,86,0.00,,,0.00,WUHU216HW,2013-02-10 17:37:00,
2013-02-10 10:42:00,27.6,24.0,30.28,SW,225,0.0,0.0,86,0.00,,,0.00,WUHU216HW,2013-02-10 17:42:00,
2013-02-10 10:47:00,28.0,23.9,30.28,SW,225,0.0,0.0,85,0.00,,,0.00,WUHU216HW,2013-02-10 17:47:00,
2013-02-10 10:52:00,28.0,24.0,30.28,NW,315,5.3,5.3,85,0.00,,,0.00,WUHU216HW,2013-02-10 17:52:00,
2013-02-10 10:57:00,28.0,24.0,30.28,NW,315,0.0,5.3,85,0.00,,,0.00,WUHU216HW,2013-02-10 17:57:00,
2013-02-10 11:02:00,27.8,23.9,30.28,NW,315,1.3,3.8,85,0.00,,,0.00,WUHU216HW,2013-02-10 18:02:00,
2013-02-10 11:07:00,27.6,23.4,30.28,WNW,293,0.0,3.8,84,0.00,,,0.00,WUHU216HW,2013-02-10 18:07:00,
2013-02-10 11:12:00,28.0,24.0,30.28,West,270,0.0,2.4,85,0.00,,,0.00,WUHU216HW,2013-02-10 18:12:00,
2013-02-10 11:17:00,28.2,24.0,30.28,SSW,203,0.0,0.0,85,0.00,,,0.00,WUHU216HW,2013-02-10 18:17:00,
2013-02-10 11:22:00,28.5,24.6,30.28,WNW,293,0.0,0.0,85,0.00,,,0.00,WUHU216HW,2013-02-10 18:22:00,
2013-02-10 11:27:00,28.9,24.6,30.28,WNW,293,0.0,1.5,84,0.00,,,0.00,WUHU216HW,2013-02-10 18:27:00,
2013-02-10 11:33:00,29.1,24.8,30.28,NW,315,1.3,4.6,84,0.00,,,0.00,WUHU216HW,2013-02-10 18:33:00,
2013-02-10 11:38:00,29.3,24.7,30.28,WNW,293,1.7,4.6,83,0.00,,,0.00,WUHU216HW,2013-02-10 18:38:00,
2013-02-10 11:43:00,29.3,24.7,30.28,NW,315,1.7,4.4,83,0.00,,,0.00,WUHU216HW,2013-02-10 18:43:00,
2013-02-10 11:48:00,29.1,24.5,30.28,WNW,293,0.0,4.4,83,0.00,,,0.00,WUHU216HW,2013-02-10 18:48:00,
2013-02-10 11:53:00,29.1,24.2,30.28,WNW,293,0.0,2.9,82,0.00,,,0.00,WUHU216HW,2013-02-10 18:53:00,
2013-02-10 11:58:00,29.1,24.5,30.28,WNW,293,0.0,1.5,83,0.00,,,0.00,WUHU216HW,2013-02-10 18:58:00,
2013-02-10 12:03:00,29.1,24.4,30.27,WNW,293,0.0,0.0,82,0.00,,,0.00,WUHU216HW,2013-02-10 19:03:00,
2013-02-10 12:08:00,29.4,24.6,30.27,West,270,0.0,2.6,82,0.00,,,0.00,WUHU216HW,2013-02-10 19:08:00,
2013-02-10 12:13:00,29.4,24.6,30.28,West,270,0.0,2.6,82,0.00,,,0.00,WUHU216HW,2013-02-10 19:13:00,
2013-02-10 12:18:00,29.6,24.8,30.27,West,270,0.6,2.9,82,0.00,,,0.00,WUHU216HW,2013-02-10 19:18:00,
2013-02-10 12:23:00,29.8,24.7,30.27,NW,315,4.9,4.9,81,0.00,,,0.00,WUHU216HW,2013-02-10 19:23:00,
2013-02-10 12:28:00,30.0,24.9,30.27,NW,315,0.0,4.9,81,0.00,,,0.00,WUHU216HW,2013-02-10 19:28:00,
2013-02-10 12:33:00,30.0,24.9,30.27,West,270,0.0,4.6,81,0.00,,,0.00,WUHU216HW,2013-02-10 19:33:00,
2013-02-10 12:38:00,30.0,24.6,30.27,NW,315,2.4,4.6,80,0.00,,,0.00,WUHU216HW,2013-02-10 19:38:00,
2013-02-10 12:43:00,30.0,24.6,30.27,NW,315,0.0,4.6,80,0.00,,,0.00,WUHU216HW,2013-02-10 19:43:00,
2013-02-10 12:49:00,30.0,24.2,30.26,NW,315,1.7,3.3,79,0.00,,,0.00,WUHU216HW,2013-02-10 19:49:00,
2013-02-10 12:54:00,29.8,24.1,30.26,NNW,338,0.0,4.9,79,0.00,,,0.00,WUHU216HW,2013-02-10 19:54:00,
2013-02-10 12:59:00,29.4,24.2,30.26,West,270,0.0,4.9,80,0.00,,,0.00,WUHU216HW,2013-02-10 19:59:00,
2013-02-10 13:04:00,29.6,24.2,30.26,NW,315,3.1,4.6,80,0.00,,,0.00,WUHU216HW,2013-02-10 20:04:00,
2013-02-10 13:09:00,29.6,23.9,30.26,NNW,338,2.0,6.4,79,0.00,,,0.00,WUHU216HW,2013-02-10 20:09:00,
2013-02-10 13:14:00,29.8,24.1,30.26,NNW,338,3.3,6.4,79,0.00,,,0.00,WUHU216HW,2013-02-10 20:14:00,
2013-02-10 13:19:00,30.0,24.2,30.25,NNW,338,6.4,6.4,79,0.00,,,0.00,WUHU216HW,2013-02-10 20:19:00,
2013-02-10 13:24:00,30.2,24.4,30.26,NW,315,0.0,6.4,79,0.00,,,0.00,WUHU216HW,2013-02-10 20:24:00,
2013-02-10 13:29:00,30.3,24.3,30.25,NE,45,2.9,6.2,78,0.00,,,0.00,WUHU216HW,2013-02-10 20:29:00,
2013-02-10 13:34:00,30.7,24.3,30.25,NW,315,3.8,5.3,77,0.00,,,0.00,WUHU216HW,2013-02-10 20:34:00,
2013-02-10 13:39:00,30.7,24.3,30.25,NW,315,1.3,5.1,77,0.00,,,0.00,WUHU216HW,2013-02-10 20:39:00,
2013-02-10 13:44:00,30.9,24.5,30.25,NW,315,0.0,5.1,77,0.00,,,0.00,WUHU216HW,2013-02-10 20:44:00,
2013-02-10 13:49:00,31.1,24.2,30.25,NW,315,5.3,7.1,76,0.00,,,0.00,WUHU216HW,2013-02-10 20:49:00,
2013-02-10 13:54:00,31.1,24.0,30.25,NW,315,5.8,7.1,75,0.00,,,0.00,WUHU216HW,2013-02-10 20:54:00,
2013-02-10 14:00:00,31.2,24.2,30.25,NW,315,6.2,6.4,75,0.00,,,0.00,WUHU216HW,2013-02-10 21:00:00,
2013-02-10 14:05:00,31.2,24.2,30.25,West,270,2.6,6.2,75,0.00,,,0.00,WUHU216HW,2013-02-10 21:05:00,
2013-02-10 14:10:00,31.6,24.6,30.25,WNW,293,1.7,4.0,75,0.00,,,0.00,WUHU216HW,2013-02-10 21:10:00,
2013-02-10 14:15:00,31.8,24.8,30.25,WNW,293,2.4,3.1,74,0.00,,,0.00,WUHU216HW,2013-02-10 21:15:00,
2013-02-10 14:20:00,32.1,24.8,30.24,WNW,293,0.0,2.4,74,0.00,,,0.00,WUHU216HW,2013-02-10 21:20:00,
2013-02-10 14:25:00,32.3,24.9,30.24,NNW,338,2.9,3.1,74,0.00,,,0.00,WUHU216HW,2013-02-10 21:25:00,
2013-02-10 14:30:00,32.5,25.1,30.24,NW,315,3.1,3.1,74,0.00,,,0.00,WUHU216HW,2013-02-10 21:30:00,
2013-02-10 14:35:00,32.7,24.9,30.24,WNW,293,2.6,4.4,73,0.00,,,0.00,WUHU216HW,2013-02-10 21:35:00,
2013-02-10 14:40:00,33.0,25.3,30.24,WNW,293,0.0,4.4,73,0.00,,,0.00,WUHU216HW,2013-02-10 21:40:00,
2013-02-10 14:45:00,33.2,25.1,30.24,NW,315,7.1,7.6,72,0.00,,,0.00,WUHU216HW,2013-02-10 21:45:00,
2013-02-10 14:50:00,33.0,24.9,30.24,NW,315,4.4,7.6,72,0.00,,,0.00,WUHU216HW,2013-02-10 21:50:00,
2013-02-10 14:55:00,33.2,24.8,30.24,NW,315,2.0,6.2,71,0.00,,,0.00,WUHU216HW,2013-02-10 21:55:00,
2013-02-10 15:00:00,33.2,24.8,30.24,North,0,0.6,5.1,71,0.00,,,0.00,WUHU216HW,2013-02-10 22:00:00,
2013-02-10 15:05:00,33.6,24.8,30.24,NW,315,5.3,5.8,70,0.00,,,0.00,WUHU216HW,2013-02-10 22:05:00,
2013-02-10 15:10:00,33.6,24.4,30.24,NNW,338,2.4,5.8,69,0.00,,,0.00,WUHU216HW,2013-02-10 22:10:00,
2013-02-10 15:16:00,33.8,24.2,30.24,West,270,2.6,6.4,68,0.00,,,0.00,WUHU216HW,2013-02-10 22:16:00,
2013-02-10 15:21:00,33.9,24.4,30.24,West,270,1.7,6.4,68,0.00,,,0.00,WUHU216HW,2013-02-10 22:21:00,
2013-02-10 15:26:00,34.1,24.2,30.25,West,270,0.0,3.8,67,0.00,,,0.00,WUHU216HW,2013-02-10 22:26:00,
2013-02-10 15:31:00,34.3,24.4,30.25,West,270,0.0,5.3,67,0.00,,,0.00,WUHU216HW,2013-02-10 22:31:00,
2013-02-10 15:36:00,34.3,23.9,30.25,WNW,293,3.3,5.3,66,0.00,,,0.00,WUHU216HW,2013-02-10 22:36:00,
2013-02-10 15:41:00,34.1,23.9,30.24,NW,315,6.9,6.9,66,0.00,,,0.00,WUHU216HW,2013-02-10 22:41:00,
2013-02-10 15:46:00,33.9,23.3,30.24,West,270,3.3,6.9,65,0.00,,,0.00,WUHU216HW,2013-02-10 22:46:00,
2013-02-10 15:51:00,33.9,23.3,30.24,NW,315,3.3,5.8,65,0.00,,,0.00,WUHU216HW,2013-02-10 22:51:00,
2013-02-10 15:56:00,33.6,23.0,30.24,WNW,293,3.5,5.8,65,0.00,,,0.00,WUHU216HW,2013-02-10 22:56:00,
2013-02-10 16:01:00,33.2,22.6,30.24,WNW,293,2.6,3.5,65,0.00,,,0.00,WUHU216HW,2013-02-10 23:01:00,
2013-02-10 16:06:00,33.0,22.5,30.24,WNW,293,0.8,3.8,65,0.00,,,0.00,WUHU216HW,2013-02-10 23:06:00,
2013-02-10 16:11:00,33.0,22.5,30.24,West,270,1.7,5.1,65,0.00,,,0.00,WUHU216HW,2013-02-10 23:11:00,
2013-02-10 16:16:00,33.0,22.5,30.24,WNW,293,2.2,5.1,65,0.00,,,0.00,WUHU216HW,2013-02-10 23:16:00,
2013-02-10 16:21:00,32.9,22.3,30.24,WNW,293,2.0,4.4,65,0.00,,,0.00,WUHU216HW,2013-02-10 23:21:00,
2013-02-10 16:27:00,32.7,22.2,30.24,WNW,293,2.4,4.4,65,0.00,,,0.00,WUHU216HW,2013-02-10 23:27:00,
2013-02-10 16:32:00,32.7,22.2,30.24,NW,315,0.0,2.9,65,0.00,,,0.00,WUHU216HW,2013-02-10 23:32:00,
2013-02-10 16:37:00,32.7,22.2,30.23,West,270,3.8,4.2,65,0.00,,,0.00,WUHU216HW,2013-02-10 23:37:00,
2013-02-10 16:42:00,32.9,22.0,30.23,NNW,338,0.0,4.2,64,0.00,,,0.00,WUHU216HW,2013-02-10 23:42:00,
2013-02-10 16:47:00,33.0,22.1,30.23,NW,315,2.6,3.5,64,0.00,,,0.00,WUHU216HW,2013-02-10 23:47:00,
2013-02-10 16:52:00,33.4,22.3,30.23,NW,315,0.0,2.6,64,0.00,,,0.00,WUHU216HW,2013-02-10 23:52:00,
2013-02-10 16:57:00,33.4,22.4,30.23,WNW,293,3.3,3.5,64,0.00,,,0.00,WUHU216HW,2013-02-10 23:57:00,
2013-02-10 17:02:00,33.4,22.4,30.23,NW,315,1.3,3.5,64,0.00,,,0.00,WUHU216HW,2013-02-11 00:02:00,
2013-02-10 17:07:00,33.4,22.4,30.23,NNW,338,2.6,4.6,64,0.00,,,0.00,WUHU216HW,2013-02-11 00:07:00,
2013-02-10 17:12:00,33.4,22.4,30.22,NNW,338,0.0,4.6,64,0.00,,,0.00,WUHU216HW,2013-02-11 00:12:00,
2013-02-10 17:17:00,33.2,22.3,30.22,NNW,338,0.0,1.7,64,0.00,,,0.00,WUHU216HW,2013-02-11 00:17:00,
2013-02-10 17:23:00,33.0,22.5,30.22,NW,315,0.0,0.8,65,0.00,,,0.00,WUHU216HW,2013-02-11 00:23:00,
2013-02-10 17:28:00,32.7,22.2,30.22,SW,225,0.0,1.5,65,0.00,,,0.00,WUHU216HW,2013-02-11 00:28:00,
2013-02-10 17:33:00,32.7,22.2,30.22,WSW,248,0.0,2.4,65,0.00,,,0.00,WUHU216HW,2013-02-11 00:33:00,
2013-02-10 17:38:00,32.1,21.7,30.22,WSW,248,0.0,2.4,65,0.00,,,0.00,WUHU216HW,2013-02-11 00:38:00,
2013-02-10 17:43:00,31.8,21.7,30.22,WSW,248,0.0,0.0,66,0.00,,,0.00,WUHU216HW,2013-02-11 00:43:00,
2013-02-10 17:48:00,31.2,21.2,30.22,WSW,248,0.0,0.0,66,0.00,,,0.00,WUHU216HW,2013-02-11 00:48:00,
2013-02-10 17:53:00,30.7,21.0,30.22,WSW,248,0.0,0.0,67,0.00,,,0.00,WUHU216HW,2013-02-11 00:53:00,
2013-02-10 17:58:00,30.3,20.6,30.22,WSW,248,0.0,0.0,67,0.00,,,0.00,WUHU216HW,2013-02-11 00:58:00,
2013-02-10 18:03:00,29.8,20.1,30.22,WSW,248,0.0,0.0,67,0.00,,,0.00,WUHU216HW,2013-02-11 01:03:00,
2013-02-10 18:08:00,29.1,19.8,30.23,WSW,248,0.0,0.0,68,0.00,,,0.00,WUHU216HW,2013-02-11 01:08:00,
2013-02-10 18:13:00,28.5,19.3,30.22,WSW,248,0.0,0.0,68,0.00,,,0.00,WUHU216HW,2013-02-11 01:13:00,
2013-02-10 18:18:00,28.0,19.2,30.22,WSW,248,0.0,0.0,69,0.00,,,0.00,WUHU216HW,2013-02-11 01:18:00,
2013-02-10 18:23:00,27.5,19.0,30.23,WSW,248,0.0,0.0,70,0.00,,,0.00,WUHU216HW,2013-02-11 01:23:00,
2013-02-10 18:28:00,27.1,18.6,30.23,WSW,248,0.0,0.0,70,0.00,,,0.00,WUHU216HW,2013-02-11 01:28:00,
2013-02-10 18:33:00,26.4,18.2,30.23,WSW,248,0.0,0.0,71,0.00,,,0.00,WUHU216HW,2013-02-11 01:33:00,
2013-02-10 18:38:00,26.2,18.0,30.23,WSW,248,0.0,0.0,71,0.00,,,0.00,WUHU216HW,2013-02-11 01:38:00,
2013-02-10 18:43:00,25.8,18.0,30.23,WSW,248,0.0,0.0,72,0.00,,,0.00,WUHU216HW,2013-02-11 01:43:00,
2013-02-10 18:49:00,25.5,17.9,30.23,WSW,248,0.0,0.0,73,0.00,,,0.00,WUHU216HW,2013-02-11 01:49:00,
2013-02-10 18:54:00,25.3,18.1,30.23,WSW,248,0.0,0.0,74,0.00,,,0.00,WUHU216HW,2013-02-11 01:54:00,
2013-02-10 18:59:00,25.1,18.3,30.23,WSW,248,0.0,0.0,75,0.00,,,0.00,WUHU216HW,2013-02-11 01:59:00,
2013-02-10 19:04:00,24.9,18.1,30.24,WSW,248,0.0,0.0,75,0.00,,,0.00,WUHU216HW,2013-02-11 02:04:00,
2013-02-10 19:09:00,24.8,17.9,30.23,WSW,248,0.0,0.0,75,0.00,,,0.00,WUHU216HW,2013-02-11 02:09:00,
2013-02-10 19:14:00,24.6,18.1,30.23,WSW,248,0.0,0.0,76,0.00,,,0.00,WUHU216HW,2013-02-11 02:14:00,
2013-02-10 19:19:00,24.6,18.1,30.23,WSW,248,0.0,0.0,76,0.00,,,0.00,WUHU216HW,2013-02-11 02:19:00,
2013-02-10 19:24:00,24.4,17.9,30.23,WSW,248,0.0,0.0,76,0.00,,,0.00,WUHU216HW,2013-02-11 02:24:00,
2013-02-10 19:30:00,24.4,18.2,30.23,WSW,248,0.0,0.0,77,0.00,,,0.00,WUHU216HW,2013-02-11 02:30:00,
2013-02-10 19:35:00,24.4,18.5,30.23,WSW,248,0.0,0.0,78,0.00,,,0.00,WUHU216HW,2013-02-11 02:35:00,
2013-02-10 19:41:00,24.4,18.5,30.23,WSW,248,0.0,0.0,78,0.00,,,0.00,WUHU216HW,2013-02-11 02:41:00,
2013-02-10 19:46:00,24.4,18.5,30.23,WSW,248,0.0,0.0,78,0.00,,,0.00,WUHU216HW,2013-02-11 02:46:00,
2013-02-10 19:51:00,24.4,18.5,30.23,WSW,248,0.0,0.0,78,0.00,,,0.00,WUHU216HW,2013-02-11 02:51:00,
2013-02-10 19:56:00,24.4,18.5,30.23,WSW,248,0.0,0.0,78,0.00,,,0.00,WUHU216HW,2013-02-11 02:56:00,
2013-02-10 20:02:00,24.0,18.2,30.23,WSW,248,0.0,0.0,78,0.00,,,0.00,WUHU216HW,2013-02-11 03:02:00,
2013-02-10 20:07:00,24.2,18.7,30.24,WSW,248,0.0,0.0,79,0.00,,,0.00,WUHU216HW,2013-02-11 03:07:00,
2013-02-10 20:12:00,24.0,18.5,30.23,WSW,248,0.0,0.0,79,0.00,,,0.00,WUHU216HW,2013-02-11 03:12:00,
2013-02-10 20:17:00,24.0,18.5,30.23,WSW,248,0.0,0.0,79,0.00,,,0.00,WUHU216HW,2013-02-11 03:17:00,
2013-02-10 20:22:00,24.0,18.5,30.23,WSW,248,0.0,0.0,79,0.00,,,0.00,WUHU216HW,2013-02-11 03:22:00,
2013-02-10 20:27:00,24.0,18.5,30.23,WSW,248,0.0,0.0,79,0.00,,,0.00,WUHU216HW,2013-02-11 03:27:00,
2013-02-10 20:32:00,24.0,18.5,30.23,WSW,248,0.0,0.0,79,0.00,,,0.00,WUHU216HW,2013-02-11 03:32:00,
2013-02-10 20:37:00,24.0,18.8,30.23,WSW,248,0.0,0.0,80,0.00,,,0.00,WUHU216HW,2013-02-11 03:37:00,
2013-02-10 20:42:00,24.2,19.0,30.22,WSW,248,0.0,0.0,80,0.00,,,0.00,WUHU216HW,2013-02-11 03:42:00,
2013-02-10 20:47:00,24.4,19.2,30.22,WSW,248,0.0,0.0,80,0.00,,,0.00,WUHU216HW,2013-02-11 03:47:00,
2013-02-10 20:52:00,24.2,18.7,30.22,WSW,248,0.0,0.0,79,0.00,,,0.00,WUHU216HW,2013-02-11 03:52:00,
2013-02-10 20:57:00,24.0,18.5,30.22,WSW,248,0.0,0.0,79,0.00,,,0.00,WUHU216HW,2013-02-11 03:57:00,
2013-02-10 21:03:00,24.0,18.5,30.22,WSW,248,0.0,0.0,79,0.00,,,0.00,WUHU216HW,2013-02-11 04:03:00,
2013-02-10 21:08:00,24.0,18.5,30.22,WSW,248,0.0,0.0,79,0.00,,,0.00,WUHU216HW,2013-02-11 04:08:00,
2013-02-10 21:14:00,24.0,18.8,30.22,SW,225,2.2,3.8,80,0.00,,,0.00,WUHU216HW,2013-02-11 04:14:00,
2013-02-10 21:19:00,24.0,18.8,30.22,SW,225,0.0,3.8,80,0.00,,,0.00,WUHU216HW,2013-02-11 04:19:00,
2013-02-10 21:24:00,24.4,19.2,30.22,SW,225,0.0,1.1,80,0.00,,,0.00,WUHU216HW,2013-02-11 04:24:00,
2013-02-10 21:29:00,24.4,19.2,30.22,SW,225,0.0,0.0,80,0.00,,,0.00,WUHU216HW,2013-02-11 04:29:00,
2013-02-10 21:34:00,24.6,19.4,30.22,SW,225,0.0,0.0,80,0.00,,,0.00,WUHU216HW,2013-02-11 04:34:00,
2013-02-10 21:39:00,24.6,19.4,30.22,SW,225,2.2,2.2,80,0.00,,,0.00,WUHU216HW,2013-02-11 04:39:00,
2013-02-10 21:44:00,24.6,19.4,30.22,SW,225,1.5,2.2,80,0.00,,,0.00,WUHU216HW,2013-02-11 04:44:00,
2013-02-10 21:49:00,24.8,19.5,30.21,SW,225,0.0,2.0,80,0.00,,,0.00,WUHU216HW,2013-02-11 04:49:00,
2013-02-10 21:54:00,24.9,19.7,30.21,South,180,4.0,4.0,80,0.00,,,0.00,WUHU216HW,2013-02-11 04:54:00,
2013-02-10 21:59:00,24.9,19.7,30.21,SSE,158,0.0,4.0,80,0.00,,,0.00,WUHU216HW,2013-02-11 04:59:00,
2013-02-10 22:00:00,24.9,19.7,30.21,SSE,158,0.0,4.0,80,0.00,,,0.00,WUHU216HW,2013-02-11 05:00:00,
2013-02-10 22:01:00,24.9,19.7,30.21,SSE,158,0.0,4.0,80,0.00,,,0.00,WUHU216HW,2013-02-11 05:01:00,
2013-02-10 22:06:00,24.9,19.7,30.21,SSE,158,0.0,0.0,80,0.00,,,0.00,WUHU216HW,2013-02-11 05:06:00,
2013-02-10 22:11:00,24.9,19.7,30.21,SSE,158,0.0,0.0,80,0.00,,,0.00,WUHU216HW,2013-02-11 05:11:00,
2013-02-10 22:16:00,24.9,19.4,30.21,SSE,158,0.0,0.0,79,0.00,,,0.00,WUHU216HW,2013-02-11 05:16:00,
2013-02-10 22:21:00,24.9,19.4,30.21,SSE,158,0.0,0.0,79,0.00,,,0.00,WUHU216HW,2013-02-11 05:21:00,
2013-02-10 22:26:00,24.9,19.4,30.21,SSE,158,0.0,0.0,79,0.00,,,0.00,WUHU216HW,2013-02-11 05:26:00,
2013-02-10 22:31:00,24.8,19.4,30.21,SSE,158,0.0,0.0,79,0.00,,,0.00,WUHU216HW,2013-02-11 05:31:00,
2013-02-10 22:36:00,24.9,19.7,30.21,SSE,158,0.0,0.0,80,0.00,,,0.00,WUHU216HW,2013-02-11 05:36:00,
2013-02-10 22:41:00,24.9,19.7,30.21,SSE,158,0.0,0.0,80,0.00,,,0.00,WUHU216HW,2013-02-11 05:41:00,
2013-02-10 22:46:00,24.9,19.7,30.21,SSE,158,0.0,0.0,80,0.00,,,0.00,WUHU216HW,2013-02-11 05:46:00,
2013-02-10 22:51:00,24.9,19.7,30.21,SSE,158,0.0,0.0,80,0.00,,,0.00,WUHU216HW,2013-02-11 05:51:00,
2013-02-10 22:56:00,24.9,19.7,30.20,SSE,158,0.0,0.0,80,0.00,,,0.00,WUHU216HW,2013-02-11 05:56:00,
2013-02-10 23:02:00,25.1,19.9,30.21,SSE,158,0.0,0.0,80,0.00,,,0.00,WUHU216HW,2013-02-11 06:02:00,
2013-02-10 23:07:00,24.9,19.7,30.21,SSW,203,0.0,3.3,80,0.00,,,0.00,WUHU216HW,2013-02-11 06:07:00,
2013-02-10 23:12:00,24.9,19.7,30.21,SSW,203,0.0,3.3,80,0.00,,,0.00,WUHU216HW,2013-02-11 06:12:00,
2013-02-10 23:17:00,24.9,19.7,30.21,SSW,203,0.0,2.9,80,0.00,,,0.00,WUHU216HW,2013-02-11 06:17:00,
2013-02-10 23:22:00,24.9,19.7,30.21,SW,225,0.8,3.1,80,0.00,,,0.00,WUHU216HW,2013-02-11 06:22:00,
2013-02-10 23:27:00,24.6,19.4,30.21,SW,225,0.0,3.1,80,0.00,,,0.00,WUHU216HW,2013-02-11 06:27:00,
2013-02-10 23:32:00,24.6,19.4,30.21,SW,225,0.0,1.5,80,0.00,,,0.00,WUHU216HW,2013-02-11 06:32:00,
2013-02-10 23:37:00,24.4,19.2,30.22,SW,225,0.0,0.0,80,0.00,,,0.00,WUHU216HW,2013-02-11 06:37:00,
2013-02-10 23:42:00,24.0,18.8,30.22,SW,225,0.0,0.0,80,0.00,,,0.00,WUHU216HW,2013-02-11 06:42:00,
2013-02-10 23:49:00,23.9,18.6,30.22,South,180,0.0,4.0,80,0.00,,,0.00,WUHU216HW,2013-02-11 06:49:00,
2013-02-10 23:54:00,23.7,18.5,30.22,South,180,0.0,4.0,80,0.00,,,0.00,WUHU216HW,2013-02-11 06:54:00,
2013-02-10 23:59:00,23.5,18.3,30.22,South,180,0.0,0.0,80,0.00,,,0.00,WUHU216HW,2013-02-11 06:59:00,